Private Wetterstation Wechselburg
Wetterdaten: Sonntag, 29.06.2014
Datum Zeit Temp. +2m Bodentemp. Temp.+5cm Temp. Wind Windchill X Diff Temp. Feuchte +2m Feuchte +5cm Sonnenschein Luftdruck Regen Wind Richtung Richtung Sonnenschein UV Taupunkt Windchill Windben
29.06.2014 00:00 16,5 C 26,1 C 16,6 C 16,6 C 16,6 C 0,1 C 84 % 85 % 0 % 1007,4 hPa 0,0 l/m 0,0 km/h (0 Bft) SW 225 0 min 0,0 UV-I 13,8 C 16,6 C 0,0 km/h (0 Bft)
29.06.2014 00:05 16,5 C 26,1 C 16,7 C 16,6 C 16,6 C 0,1 C 84 % 85 % 0 % 1007,4 hPa 0,0 l/m 0,0 km/h (0 Bft) SW 225 0 min 0,0 UV-I 13,8 C 16,6 C 0,0 km/h (0 Bft)
29.06.2014 00:10 16,5 C 26,1 C 16,6 C 16,6 C 16,6 C 0,1 C 84 % 85 % 0 % 1007,4 hPa 0,0 l/m 0,2 km/h (0 Bft) O-NO 67 0 min 0,0 UV-I 13,8 C 16,6 C 1,6 km/h (1 Bft)
29.06.2014 00:15 16,5 C 26,1 C 16,6 C 16,6 C 16,6 C 0,1 C 84 % 85 % 0 % 1007,4 hPa 0,0 l/m 0,2 km/h (0 Bft) O-NO 67 0 min 0,0 UV-I 13,8 C 16,6 C 0,0 km/h (0 Bft)
29.06.2014 00:20 16,4 C 26,1 C 16,5 C 16,6 C 16,6 C 0,2 C 84 % 85 % 0 % 1006,9 hPa 0,0 l/m 0,2 km/h (0 Bft) O-NO 67 0 min 0,0 UV-I 13,7 C 16,6 C 0,0 km/h (0 Bft)
29.06.2014 00:25 16,4 C 26,1 C 16,5 C 16,6 C 16,6 C 0,2 C 84 % 85 % 0 % 1006,9 hPa 0,0 l/m 0,0 km/h (0 Bft) SW 225 0 min 0,0 UV-I 13,7 C 16,6 C 0,0 km/h (0 Bft)
29.06.2014 00:30 16,3 C 26,1 C 16,5 C 16,6 C 16,6 C 0,3 C 84 % 85 % 0 % 1006,9 hPa 0,0 l/m 0,0 km/h (0 Bft) S 180 0 min 0,0 UV-I 13,6 C 16,6 C 0,0 km/h (0 Bft)
29.06.2014 00:35 16,3 C 26,1 C 16,4 C 16,5 C 16,5 C 0,2 C 84 % 85 % 0 % 1006,9 hPa 0,0 l/m 0,0 km/h (0 Bft) O-NO 67 0 min 0,0 UV-I 13,6 C 16,5 C 0,0 km/h (0 Bft)
29.06.2014 00:41 16,3 C 26,1 C 16,5 C 16,4 C 16,4 C 0,1 C 85 % 85 % 0 % 1006,9 hPa 0,0 l/m 0,0 km/h (0 Bft) N 0 0 min 0,0 UV-I 13,8 C 16,4 C 0,0 km/h (0 Bft)
29.06.2014 01:01 16,0 C 26,0 C 16,3 C 16,1 C 16,1 C 0,1 C 85 % 85 % 0 % 1007,1 hPa 0,0 l/m 0,0 km/h (0 Bft) NO 45 0 min 0,0 UV-I 13,5 C 16,1 C 0,0 km/h (0 Bft)
29.06.2014 01:02 16,0 C 26,0 C 16,3 C 16,1 C 16,1 C 0,1 C 85 % 85 % 0 % 1007,1 hPa 0,0 l/m 0,0 km/h (0 Bft) NO 45 0 min 0,0 UV-I 13,5 C 16,1 C 0,0 km/h (0 Bft)
29.06.2014 01:03 16,0 C 26,0 C 16,3 C 16,1 C 16,1 C 0,1 C 85 % 85 % 0 % 1007,1 hPa 0,0 l/m 0,0 km/h (0 Bft) NO 45 0 min 0,0 UV-I 13,5 C 16,1 C 0,0 km/h (0 Bft)
29.06.2014 01:10 15,9 C 26,0 C 16,2 C 15,9 C 15,9 C 0,0 C 85 % 85 % 0 % 1007,1 hPa 0,0 l/m 0,0 km/h (0 Bft) W-SW 247 0 min 0,0 UV-I 13,4 C 15,9 C 0,0 km/h (0 Bft)
29.06.2014 01:15 15,9 C 26,0 C 16,2 C 15,8 C 15,7 C 0,0 C 85 % 85 % 0 % 1007,1 hPa 0,0 l/m 0,0 km/h (0 Bft) SW 225 0 min 0,0 UV-I 13,4 C 15,7 C 0,0 km/h (0 Bft)
29.06.2014 01:20 15,9 C 26,0 C 16,1 C 15,8 C 15,5 C 0,0 C 85 % 86 % 0 % 1007,1 hPa 0,0 l/m 0,0 km/h (0 Bft) S 180 0 min 0,0 UV-I 13,4 C 15,5 C 0,0 km/h (0 Bft)
29.06.2014 01:25 15,7 C 26,0 C 16,0 C 15,6 C 15,5 C 0,0 C 85 % 86 % 0 % 1007,1 hPa 0,0 l/m 0,0 km/h (0 Bft) S 180 0 min 0,0 UV-I 13,2 C 15,5 C 0,0 km/h (0 Bft)
29.06.2014 01:30 15,6 C 26,0 C 16,1 C 15,6 C 15,5 C 0,0 C 85 % 86 % 0 % 1007,1 hPa 0,0 l/m 0,0 km/h (0 Bft) S 180 0 min 0,0 UV-I 13,1 C 15,5 C 0,0 km/h (0 Bft)
29.06.2014 01:35 15,6 C 26,0 C 16,1 C 15,6 C 15,5 C 0,0 C 85 % 86 % 0 % 1007,1 hPa 0,0 l/m 0,0 km/h (0 Bft) O-SO 112 0 min 0,0 UV-I 13,1 C 15,5 C 0,0 km/h (0 Bft)
29.06.2014 01:40 15,5 C 26,0 C 16,0 C 15,7 C 15,7 C 0,2 C 85 % 86 % 0 % 1006,9 hPa 0,0 l/m 0,0 km/h (0 Bft) SO 135 0 min 0,0 UV-I 13,0 C 15,7 C 0,0 km/h (0 Bft)
29.06.2014 01:45 15,4 C 26,0 C 16,1 C 15,7 C 15,7 C 0,3 C 85 % 86 % 0 % 1006,9 hPa 0,0 l/m 0,0 km/h (0 Bft) O-NO 67 0 min 0,0 UV-I 12,9 C 15,7 C 0,0 km/h (0 Bft)
29.06.2014 01:50 15,4 C 25,9 C 16,1 C 15,9 C 15,9 C 0,5 C 85 % 86 % 0 % 1006,9 hPa 0,0 l/m 0,0 km/h (0 Bft) NO 45 0 min 0,0 UV-I 12,9 C 15,9 C 0,0 km/h (0 Bft)
29.06.2014 01:55 15,5 C 25,9 C 16,0 C 15,9 C 15,9 C 0,4 C 85 % 86 % 0 % 1006,9 hPa 0,0 l/m 0,0 km/h (0 Bft) S 180 0 min 0,0 UV-I 13,0 C 15,9 C 0,0 km/h (0 Bft)
29.06.2014 02:00 15,5 C 25,9 C 16,0 C 15,9 C 15,9 C 0,4 C 85 % 86 % 0 % 1006,8 hPa 0,0 l/m 0,0 km/h (0 Bft) S 180 0 min 0,0 UV-I 13,0 C 15,9 C 0,0 km/h (0 Bft)
29.06.2014 02:05 15,4 C 26,0 C 16,0 C 15,9 C 15,9 C 0,5 C 85 % 86 % 0 % 1006,8 hPa 0,0 l/m 0,0 km/h (0 Bft) SO 135 0 min 0,0 UV-I 12,9 C 15,9 C 0,0 km/h (0 Bft)
29.06.2014 02:10 15,3 C 25,9 C 16,1 C 15,9 C 15,9 C 0,6 C 85 % 86 % 0 % 1006,8 hPa 0,0 l/m 0,0 km/h (0 Bft) W 270 0 min 0,0 UV-I 12,8 C 15,9 C 0,0 km/h (0 Bft)
29.06.2014 02:15 15,5 C 25,9 C 16,0 C 16,1 C 16,1 C 0,6 C 85 % 86 % 0 % 1006,8 hPa 0,0 l/m 0,3 km/h (0 Bft) N-NO 22 0 min 0,0 UV-I 13,0 C 16,1 C 0,0 km/h (0 Bft)
29.06.2014 02:20 15,6 C 25,9 C 16,3 C 16,4 C 16,4 C 0,8 C 84 % 85 % 0 % 1006,8 hPa 0,0 l/m 0,3 km/h (0 Bft) O-SO 112 0 min 0,0 UV-I 12,9 C 16,4 C 4,8 km/h (1 Bft)
29.06.2014 02:25 15,7 C 25,9 C 16,3 C 16,5 C 16,5 C 0,8 C 85 % 85 % 0 % 1006,8 hPa 0,0 l/m 0,2 km/h (0 Bft) NW 315 0 min 0,0 UV-I 13,2 C 16,5 C 0,0 km/h (0 Bft)
29.06.2014 02:30 15,9 C 25,9 C 16,5 C 16,5 C 16,5 C 0,6 C 84 % 85 % 0 % 1006,8 hPa 0,0 l/m 0,6 km/h (0 Bft) S-SO 157 0 min 0,0 UV-I 13,2 C 16,5 C 5,1 km/h (1 Bft)
29.06.2014 02:35 16,1 C 25,9 C 16,5 C 16,3 C 16,3 C 0,2 C 84 % 85 % 0 % 1006,8 hPa 0,0 l/m 1,6 km/h (1 Bft) S 180 0 min 0,0 UV-I 13,4 C 16,3 C 1,9 km/h (1 Bft)
29.06.2014 02:40 16,3 C 25,9 C 16,7 C 16,2 C 16,1 C 0,0 C 84 % 85 % 0 % 1006,3 hPa 0,0 l/m 1,6 km/h (1 Bft) NO 45 0 min 0,0 UV-I 13,6 C 16,1 C 7,7 km/h (2 Bft)
29.06.2014 02:45 16,3 C 25,9 C 16,7 C 16,2 C 16,0 C 0,0 C 84 % 85 % 0 % 1006,3 hPa 0,0 l/m 1,0 km/h (0 Bft) S 180 0 min 0,0 UV-I 13,6 C 16,0 C 0,0 km/h (0 Bft)
29.06.2014 02:50 16,4 C 25,9 C 16,5 C 16,2 C 15,9 C 0,0 C 84 % 85 % 0 % 1006,3 hPa 0,0 l/m 0,8 km/h (0 Bft) W 270 0 min 0,0 UV-I 13,7 C 15,9 C 0,0 km/h (0 Bft)
29.06.2014 02:55 16,4 C 25,9 C 16,5 C 16,2 C 15,9 C 0,0 C 84 % 85 % 0 % 1006,3 hPa 0,0 l/m 0,5 km/h (0 Bft) SO 135 0 min 0,0 UV-I 13,7 C 15,9 C 0,0 km/h (0 Bft)
29.06.2014 03:00 16,3 C 25,9 C 16,5 C 16,1 C 15,8 C 0,0 C 84 % 85 % 0 % 1006,0 hPa 0,0 l/m 0,5 km/h (0 Bft) S-SW 202 0 min 0,0 UV-I 13,6 C 15,8 C 0,0 km/h (0 Bft)
29.06.2014 03:05 16,3 C 25,9 C 16,5 C 16,1 C 15,8 C 0,0 C 84 % 85 % 0 % 1006,0 hPa 0,0 l/m 0,6 km/h (0 Bft) SO 135 0 min 0,0 UV-I 13,6 C 15,8 C 0,0 km/h (0 Bft)
29.06.2014 03:10 16,3 C 25,9 C 16,4 C 16,1 C 15,8 C 0,0 C 84 % 85 % 0 % 1006,0 hPa 0,0 l/m 0,8 km/h (0 Bft) W-SW 247 0 min 0,0 UV-I 13,6 C 15,8 C 0,0 km/h (0 Bft)
29.06.2014 03:15 16,3 C 25,9 C 16,4 C 16,1 C 15,8 C 0,0 C 84 % 85 % 0 % 1006,0 hPa 0,0 l/m 0,5 km/h (0 Bft) S-SO 157 0 min 0,0 UV-I 13,6 C 15,8 C 2,1 km/h (1 Bft)
29.06.2014 03:20 16,1 C 25,9 C 16,4 C 16,0 C 15,7 C 0,0 C 84 % 85 % 0 % 1005,8 hPa 0,0 l/m 0,3 km/h (0 Bft) SW 225 0 min 0,0 UV-I 13,4 C 15,7 C 3,7 km/h (1 Bft)
29.06.2014 03:25 16,1 C 25,9 C 16,3 C 16,0 C 15,7 C 0,0 C 85 % 85 % 0 % 1005,8 hPa 0,0 l/m 0,6 km/h (0 Bft) W-SW 247 0 min 0,0 UV-I 13,6 C 15,7 C 0,0 km/h (0 Bft)
29.06.2014 03:30 16,0 C 25,9 C 16,3 C 15,9 C 15,7 C 0,0 C 85 % 85 % 0 % 1005,8 hPa 0,0 l/m 0,5 km/h (0 Bft) S-SO 157 0 min 0,0 UV-I 13,5 C 15,7 C 0,0 km/h (0 Bft)
29.06.2014 03:35 16,0 C 25,9 C 16,3 C 15,9 C 15,8 C 0,0 C 85 % 85 % 0 % 1005,8 hPa 0,0 l/m 0,2 km/h (0 Bft) N-NW 337 0 min 0,0 UV-I 13,5 C 15,8 C 0,0 km/h (0 Bft)
29.06.2014 03:40 16,0 C 25,9 C 16,3 C 15,9 C 15,8 C 0,0 C 85 % 86 % 0 % 1005,4 hPa 0,0 l/m 0,0 km/h (0 Bft) S 180 0 min 0,0 UV-I 13,5 C 15,8 C 0,0 km/h (0 Bft)
29.06.2014 03:45 16,0 C 25,9 C 16,2 C 16,0 C 15,9 C 0,0 C 85 % 86 % 0 % 1005,4 hPa 0,0 l/m 0,0 km/h (0 Bft) S 180 0 min 0,0 UV-I 13,5 C 15,9 C 0,0 km/h (0 Bft)
29.06.2014 03:50 15,9 C 25,9 C 16,1 C 15,9 C 15,8 C 0,0 C 85 % 86 % 0 % 1005,4 hPa 0,0 l/m 0,0 km/h (0 Bft) S-SW 202 0 min 0,0 UV-I 13,4 C 15,8 C 0,0 km/h (0 Bft)
29.06.2014 03:55 15,9 C 25,9 C 16,1 C 15,9 C 15,8 C 0,0 C 85 % 86 % 0 % 1005,4 hPa 0,0 l/m 0,0 km/h (0 Bft) S 180 0 min 0,0 UV-I 13,4 C 15,8 C 0,0 km/h (0 Bft)
29.06.2014 04:00 15,8 C 25,9 C 16,0 C 15,8 C 15,8 C 0,0 C 85 % 86 % 0 % 1005,5 hPa 0,0 l/m 0,0 km/h (0 Bft) S-SW 202 0 min 0,0 UV-I 13,3 C 15,8 C 0,0 km/h (0 Bft)
29.06.2014 04:05 15,9 C 25,9 C 16,0 C 15,8 C 15,7 C 0,0 C 85 % 86 % 0 % 1005,5 hPa 0,0 l/m 0,0 km/h (0 Bft) S 180 0 min 0,0 UV-I 13,4 C 15,7 C 0,0 km/h (0 Bft)
29.06.2014 04:10 15,7 C 25,9 C 16,0 C 15,7 C 15,7 C 0,0 C 85 % 86 % 0 % 1005,5 hPa 0,0 l/m 0,0 km/h (0 Bft) NW 315 0 min 0,0 UV-I 13,2 C 15,7 C 0,0 km/h (0 Bft)
29.06.2014 04:15 15,7 C 25,9 C 16,0 C 15,8 C 15,8 C 0,1 C 85 % 86 % 0 % 1005,5 hPa 0,0 l/m 0,2 km/h (0 Bft) W 270 0 min 0,0 UV-I 13,2 C 15,8 C 0,0 km/h (0 Bft)
29.06.2014 04:20 15,6 C 25,9 C 16,0 C 15,9 C 15,9 C 0,3 C 85 % 86 % 0 % 1005,3 hPa 0,0 l/m 0,2 km/h (0 Bft) SO 135 0 min 0,0 UV-I 13,1 C 15,9 C 0,0 km/h (0 Bft)
29.06.2014 04:25 15,6 C 25,9 C 16,0 C 15,8 C 15,8 C 0,2 C 85 % 86 % 0 % 1005,3 hPa 0,0 l/m 0,0 km/h (0 Bft) S 180 0 min 0,0 UV-I 13,1 C 15,8 C 0,0 km/h (0 Bft)
29.06.2014 04:30 15,7 C 25,9 C 16,0 C 15,7 C 15,7 C 0,0 C 86 % 86 % 0 % 1005,3 hPa 0,0 l/m 0,0 km/h (0 Bft) S 180 0 min 0,0 UV-I 13,4 C 15,7 C 2,1 km/h (1 Bft)
29.06.2014 04:35 15,6 C 25,9 C 16,0 C 15,6 C 15,6 C 0,0 C 86 % 86 % 0 % 1005,3 hPa 0,0 l/m 0,2 km/h (0 Bft) S 180 0 min 0,0 UV-I 13,3 C 15,6 C 0,0 km/h (0 Bft)
29.06.2014 04:40 15,6 C 25,9 C 16,0 C 15,6 C 15,5 C 0,0 C 86 % 86 % 0 % 1005,0 hPa 0,0 l/m 0,2 km/h (0 Bft) W-SW 247 0 min 0,0 UV-I 13,3 C 15,5 C 0,0 km/h (0 Bft)
29.06.2014 04:45 15,5 C 25,9 C 16,0 C 15,5 C 15,5 C 0,0 C 86 % 86 % 0 % 1005,0 hPa 0,0 l/m 0,0 km/h (0 Bft) W-SW 247 0 min 0,0 UV-I 13,2 C 15,5 C 0,0 km/h (0 Bft)
29.06.2014 04:50 15,5 C 25,9 C 16,0 C 15,5 C 15,5 C 0,0 C 86 % 87 % 0 % 1005,0 hPa 0,0 l/m 0,3 km/h (0 Bft) S 180 0 min 0,0 UV-I 13,2 C 15,5 C 0,0 km/h (0 Bft)
29.06.2014 04:55 15,5 C 25,8 C 16,0 C 15,5 C 15,5 C 0,0 C 86 % 87 % 0 % 1005,0 hPa 0,0 l/m 0,3 km/h (0 Bft) W-SW 247 0 min 0,0 UV-I 13,2 C 15,5 C 0,0 km/h (0 Bft)
29.06.2014 05:00 15,5 C 25,8 C 16,0 C 15,6 C 15,6 C 0,1 C 86 % 87 % 0 % 1004,6 hPa 0,0 l/m 0,3 km/h (0 Bft) W-SW 247 0 min 0,0 UV-I 13,2 C 15,6 C 1,9 km/h (1 Bft)
29.06.2014 05:05 15,5 C 25,8 C 16,0 C 15,6 C 15,6 C 0,1 C 86 % 87 % 0 % 1004,6 hPa 0,0 l/m 0,5 km/h (0 Bft) N-NW 337 0 min 0,0 UV-I 13,2 C 15,6 C 2,4 km/h (1 Bft)
29.06.2014 05:10 15,7 C 25,8 C 16,0 C 15,7 C 15,6 C 0,0 C 86 % 87 % 0 % 1004,6 hPa 0,0 l/m 1,0 km/h (0 Bft) S 180 0 min 0,0 UV-I 13,4 C 15,6 C 0,0 km/h (0 Bft)
29.06.2014 05:15 15,7 C 25,8 C 16,1 C 15,7 C 15,7 C 0,0 C 86 % 87 % 0 % 1004,6 hPa 0,0 l/m 1,0 km/h (0 Bft) S-SW 202 0 min 0,0 UV-I 13,4 C 15,7 C 3,9 km/h (1 Bft)
29.06.2014 05:20 15,7 C 25,8 C 16,1 C 15,7 C 15,7 C 0,0 C 86 % 87 % 0 % 1004,6 hPa 0,0 l/m 1,1 km/h (1 Bft) SO 135 0 min 0,0 UV-I 13,4 C 15,7 C 0,0 km/h (0 Bft)
29.06.2014 05:25 15,7 C 25,8 C 16,2 C 15,7 C 15,7 C 0,0 C 86 % 87 % 0 % 1004,6 hPa 0,0 l/m 1,0 km/h (0 Bft) S-SW 202 0 min 0,0 UV-I 13,4 C 15,7 C 0,0 km/h (0 Bft)
29.06.2014 05:30 15,9 C 25,8 C 16,1 C 15,8 C 15,7 C 0,0 C 86 % 87 % 0 % 1004,6 hPa 0,0 l/m 0,8 km/h (0 Bft) S 180 0 min 0,0 UV-I 13,6 C 15,7 C 1,6 km/h (1 Bft)
29.06.2014 05:35 15,8 C 25,8 C 16,1 C 15,8 C 15,8 C 0,0 C 86 % 86 % 0 % 1004,6 hPa 0,0 l/m 0,8 km/h (0 Bft) S 180 0 min 0,0 UV-I 13,5 C 15,8 C 0,0 km/h (0 Bft)
29.06.2014 05:40 15,9 C 25,8 C 16,3 C 15,9 C 15,8 C 0,0 C 85 % 86 % 0 % 1004,5 hPa 0,0 l/m 0,3 km/h (0 Bft) S 180 0 min 0,0 UV-I 13,4 C 15,8 C 0,0 km/h (0 Bft)
29.06.2014 05:45 15,9 C 25,8 C 16,3 C 15,9 C 15,8 C 0,0 C 85 % 86 % 0 % 1004,5 hPa 0,0 l/m 0,3 km/h (0 Bft) S 180 0 min 0,0 UV-I 13,4 C 15,8 C 2,3 km/h (1 Bft)
29.06.2014 05:50 15,9 C 25,8 C 16,3 C 15,9 C 15,9 C 0,0 C 85 % 86 % 0 % 1004,5 hPa 0,0 l/m 0,3 km/h (0 Bft) W 270 0 min 0,0 UV-I 13,4 C 15,9 C 0,0 km/h (0 Bft)
29.06.2014 05:55 16,0 C 25,8 C 16,3 C 16,0 C 15,9 C 0,0 C 85 % 86 % 0 % 1004,5 hPa 0,0 l/m 0,5 km/h (0 Bft) SO 135 0 min 0,0 UV-I 13,5 C 15,9 C 0,0 km/h (0 Bft)
29.06.2014 06:00 16,1 C 25,8 C 16,2 C 16,1 C 16,0 C 0,0 C 85 % 86 % 0 % 1004,1 hPa 0,0 l/m 0,6 km/h (0 Bft) SW 225 0 min 0,0 UV-I 13,6 C 16,0 C 0,0 km/h (0 Bft)
29.06.2014 06:05 16,0 C 25,8 C 16,3 C 16,1 C 16,1 C 0,1 C 85 % 86 % 3 % 1004,1 hPa 0,0 l/m 0,6 km/h (0 Bft) O-SO 112 0 min 0,0 UV-I 13,5 C 16,1 C 2,6 km/h (1 Bft)
29.06.2014 06:10 16,1 C 25,8 C 16,3 C 16,1 C 16,1 C 0,0 C 85 % 86 % 0 % 1004,1 hPa 0,0 l/m 0,2 km/h (0 Bft) S-SO 157 0 min 0,0 UV-I 13,6 C 16,1 C 1,9 km/h (1 Bft)
29.06.2014 06:15 16,1 C 25,8 C 16,4 C 16,3 C 16,3 C 0,2 C 85 % 86 % 5 % 1004,1 hPa 0,0 l/m 0,6 km/h (0 Bft) S 180 0 min 0,0 UV-I 13,6 C 16,3 C 0,0 km/h (0 Bft)
29.06.2014 06:20 16,3 C 25,8 C 16,4 C 16,4 C 16,4 C 0,1 C 85 % 86 % 3 % 1004,2 hPa 0,0 l/m 0,6 km/h (0 Bft) O-SO 112 0 min 0,0 UV-I 13,8 C 16,4 C 2,6 km/h (1 Bft)
29.06.2014 06:25 16,3 C 25,7 C 16,4 C 16,6 C 16,6 C 0,3 C 84 % 85 % 8 % 1004,2 hPa 0,0 l/m 0,6 km/h (0 Bft) S-SO 157 0 min 0,0 UV-I 13,6 C 16,6 C 0,0 km/h (0 Bft)
29.06.2014 06:30 16,4 C 25,7 C 16,7 C 16,8 C 16,8 C 0,4 C 84 % 86 % 11 % 1004,2 hPa 0,0 l/m 0,8 km/h (0 Bft) W 270 0 min 0,0 UV-I 13,7 C 16,8 C 3,9 km/h (1 Bft)
29.06.2014 06:35 16,5 C 25,7 C 16,7 C 16,9 C 16,9 C 0,4 C 84 % 86 % 11 % 1004,2 hPa 0,0 l/m 0,6 km/h (0 Bft) SW 225 0 min 0,0 UV-I 13,8 C 16,9 C 1,9 km/h (1 Bft)
29.06.2014 06:41 16,6 C 25,7 C 16,8 C 17,1 C 17,1 C 0,5 C 83 % 85 % 13 % 1004,6 hPa 0,0 l/m 0,8 km/h (0 Bft) N 0 0 min 0,0 UV-I 13,7 C 17,1 C 0,0 km/h (0 Bft)
29.06.2014 07:01 16,8 C 25,7 C 17,0 C 17,6 C 17,6 C 0,8 C 82 % 84 % 21 % 1004,3 hPa 0,0 l/m 0,3 km/h (0 Bft) S 180 0 min 0,0 UV-I 13,7 C 17,6 C 0,0 km/h (0 Bft)
29.06.2014 07:02 16,8 C 25,7 C 17,0 C 17,6 C 17,6 C 0,8 C 82 % 84 % 21 % 1004,3 hPa 0,0 l/m 0,3 km/h (0 Bft) S 180 0 min 0,0 UV-I 13,7 C 17,6 C 0,0 km/h (0 Bft)
29.06.2014 07:05 16,8 C 25,7 C 17,0 C 17,6 C 17,6 C 0,8 C 82 % 84 % 21 % 1004,3 hPa 0,0 l/m 0,3 km/h (0 Bft) S 180 0 min 0,0 UV-I 13,7 C 17,6 C 0,0 km/h (0 Bft)
29.06.2014 07:10 17,0 C 25,7 C 17,1 C 18,0 C 18,0 C 1,0 C 82 % 84 % 26 % 1004,3 hPa 0,0 l/m 0,3 km/h (0 Bft) S 180 0 min 0,0 UV-I 13,9 C 18,0 C 1,8 km/h (1 Bft)
29.06.2014 07:15 17,0 C 25,7 C 17,2 C 18,1 C 18,1 C 1,1 C 82 % 84 % 29 % 1004,3 hPa 0,0 l/m 0,3 km/h (0 Bft) S-SO 157 0 min 0,0 UV-I 13,9 C 18,1 C 0,0 km/h (0 Bft)
29.06.2014 07:20 17,2 C 25,7 C 17,2 C 18,5 C 18,5 C 1,3 C 82 % 84 % 34 % 1004,0 hPa 0,0 l/m 0,3 km/h (0 Bft) S-SO 157 0 min 0,0 UV-I 14,1 C 18,5 C 3,1 km/h (1 Bft)
29.06.2014 07:25 17,3 C 25,7 C 17,3 C 18,5 C 18,5 C 1,2 C 81 % 84 % 32 % 1004,0 hPa 0,0 l/m 0,3 km/h (0 Bft) SW 225 0 min 0,0 UV-I 14,0 C 18,5 C 0,0 km/h (0 Bft)
29.06.2014 07:30 17,5 C 25,7 C 17,3 C 18,7 C 18,7 C 1,2 C 81 % 83 % 32 % 1004,0 hPa 0,0 l/m 0,3 km/h (0 Bft) W-SW 247 0 min 0,0 UV-I 14,2 C 18,7 C 0,0 km/h (0 Bft)
29.06.2014 07:35 17,5 C 25,7 C 17,5 C 18,7 C 18,7 C 1,2 C 81 % 83 % 32 % 1004,0 hPa 0,0 l/m 0,5 km/h (0 Bft) S 180 0 min 0,0 UV-I 14,2 C 18,7 C 0,0 km/h (0 Bft)
29.06.2014 07:40 17,7 C 25,7 C 17,5 C 18,9 C 18,9 C 1,2 C 80 % 83 % 32 % 1004,4 hPa 0,0 l/m 1,1 km/h (1 Bft) W-NW 292 0 min 0,0 UV-I 14,2 C 18,9 C 5,0 km/h (1 Bft)
29.06.2014 07:45 17,7 C 25,7 C 17,7 C 19,0 C 19,0 C 1,3 C 80 % 83 % 34 % 1004,4 hPa 0,0 l/m 1,6 km/h (1 Bft) SO 135 0 min 0,0 UV-I 14,2 C 19,0 C 4,0 km/h (1 Bft)
29.06.2014 07:50 17,8 C 25,7 C 17,8 C 19,2 C 19,2 C 1,4 C 80 % 83 % 37 % 1004,4 hPa 0,0 l/m 1,9 km/h (1 Bft) SO 135 0 min 0,0 UV-I 14,3 C 19,2 C 1,8 km/h (1 Bft)
29.06.2014 07:55 17,9 C 25,7 C 17,8 C 19,4 C 19,4 C 1,5 C 80 % 83 % 39 % 1004,4 hPa 0,0 l/m 2,1 km/h (1 Bft) W 270 0 min 0,0 UV-I 14,4 C 19,4 C 1,6 km/h (1 Bft)
29.06.2014 08:00 18,0 C 25,7 C 17,9 C 19,5 C 19,5 C 1,5 C 80 % 82 % 39 % 1004,4 hPa 0,0 l/m 2,6 km/h (1 Bft) S-SO 157 0 min 0,0 UV-I 14,5 C 19,5 C 16,3 km/h (3 Bft)
29.06.2014 08:05 18,1 C 25,7 C 18,1 C 19,6 C 19,6 C 1,5 C 79 % 82 % 39 % 1004,4 hPa 0,0 l/m 2,3 km/h (1 Bft) S-SO 157 0 min 0,0 UV-I 14,4 C 19,6 C 6,6 km/h (2 Bft)
29.06.2014 08:10 18,3 C 25,7 C 18,1 C 19,8 C 19,8 C 1,5 C 79 % 82 % 39 % 1004,4 hPa 0,0 l/m 2,1 km/h (1 Bft) W-NW 292 0 min 0,0 UV-I 14,6 C 19,8 C 2,7 km/h (1 Bft)
29.06.2014 08:15 18,3 C 25,7 C 18,1 C 19,8 C 19,8 C 1,5 C 79 % 81 % 39 % 1004,4 hPa 0,0 l/m 2,9 km/h (1 Bft) S-SO 157 0 min 0,0 UV-I 14,6 C 19,8 C 8,0 km/h (2 Bft)
29.06.2014 08:20 18,3 C 25,7 C 18,1 C 19,6 C 19,6 C 1,3 C 79 % 81 % 34 % 1004,3 hPa 0,0 l/m 2,9 km/h (1 Bft) W-NW 292 0 min 0,0 UV-I 14,6 C 19,6 C 3,9 km/h (1 Bft)
29.06.2014 08:25 18,3 C 25,7 C 18,0 C 19,5 C 19,5 C 1,2 C 79 % 81 % 32 % 1004,3 hPa 0,0 l/m 2,6 km/h (1 Bft) N-NW 337 0 min 0,0 UV-I 14,6 C 19,5 C 1,6 km/h (1 Bft)
29.06.2014 08:30 18,3 C 25,7 C 18,1 C 20,0 C 20,0 C 1,7 C 79 % 81 % 45 % 1004,3 hPa 0,0 l/m 2,3 km/h (1 Bft) W-SW 247 0 min 0,0 UV-I 14,6 C 20,0 C 4,2 km/h (1 Bft)
29.06.2014 08:35 18,4 C 25,7 C 18,3 C 21,2 C 21,2 C 2,8 C 80 % 82 % 74 % 1004,3 hPa 0,0 l/m 2,6 km/h (1 Bft) SO 135 0 min 0,0 UV-I 14,9 C 21,2 C 4,0 km/h (1 Bft)
29.06.2014 08:40 18,8 C 25,7 C 18,5 C 23,4 C 23,4 C 4,6 C 79 % 81 % 100 % 1004,6 hPa 0,0 l/m 3,2 km/h (1 Bft) W 270 5 min 0,0 UV-I 15,1 C 23,4 C 6,6 km/h (2 Bft)
29.06.2014 08:45 19,1 C 25,7 C 18,5 C 23,6 C 23,6 C 4,5 C 79 % 81 % 100 % 1004,6 hPa 0,0 l/m 3,9 km/h (1 Bft) SW 225 5 min 0,0 UV-I 15,4 C 23,6 C 8,9 km/h (2 Bft)
29.06.2014 08:50 19,3 C 25,7 C 18,5 C 23,8 C 23,8 C 4,5 C 78 % 81 % 100 % 1004,6 hPa 0,0 l/m 4,2 km/h (1 Bft) N-NO 22 5 min 0,0 UV-I 15,4 C 23,8 C 5,3 km/h (1 Bft)
29.06.2014 08:55 19,4 C 25,6 C 18,6 C 23,8 C 23,8 C 4,4 C 78 % 81 % 100 % 1004,6 hPa 0,0 l/m 4,2 km/h (1 Bft) S-SO 157 5 min 0,0 UV-I 15,5 C 23,8 C 6,8 km/h (2 Bft)
29.06.2014 09:00 19,6 C 25,6 C 18,8 C 24,3 C 24,3 C 4,7 C 77 % 80 % 100 % 1004,4 hPa 0,0 l/m 3,2 km/h (1 Bft) O-SO 112 5 min 0,0 UV-I 15,5 C 24,3 C 2,4 km/h (1 Bft)
29.06.2014 09:05 19,8 C 25,6 C 18,8 C 24,3 C 24,3 C 4,5 C 77 % 80 % 100 % 1004,4 hPa 0,0 l/m 2,7 km/h (1 Bft) S 180 5 min 0,0 UV-I 15,6 C 24,3 C 2,3 km/h (1 Bft)
29.06.2014 09:10 20,0 C 25,6 C 19,1 C 24,2 C 24,2 C 4,2 C 76 % 80 % 100 % 1004,4 hPa 0,0 l/m 2,4 km/h (1 Bft) SO 135 5 min 0,0 UV-I 15,6 C 24,2 C 2,4 km/h (1 Bft)
29.06.2014 09:15 20,0 C 25,6 C 19,1 C 24,1 C 24,1 C 4,1 C 76 % 80 % 100 % 1004,4 hPa 0,0 l/m 2,6 km/h (1 Bft) S-SO 157 5 min 0,0 UV-I 15,6 C 24,1 C 6,8 km/h (2 Bft)
29.06.2014 09:20 20,1 C 25,6 C 19,5 C 24,1 C 24,1 C 4,0 C 75 % 78 % 100 % 1004,4 hPa 0,0 l/m 3,1 km/h (1 Bft) O-SO 112 5 min 0,0 UV-I 15,5 C 24,1 C 2,9 km/h (1 Bft)
29.06.2014 09:25 20,2 C 25,6 C 19,5 C 23,7 C 23,7 C 3,5 C 75 % 78 % 92 % 1004,4 hPa 0,0 l/m 2,9 km/h (1 Bft) W-SW 247 5 min 0,0 UV-I 15,6 C 23,7 C 2,3 km/h (1 Bft)
29.06.2014 09:30 20,2 C 25,6 C 19,7 C 23,4 C 23,4 C 3,2 C 74 % 77 % 84 % 1004,4 hPa 0,0 l/m 3,2 km/h (1 Bft) O-SO 112 0 min 0,0 UV-I 15,4 C 23,4 C 4,0 km/h (1 Bft)
29.06.2014 09:35 20,1 C 25,6 C 19,6 C 23,3 C 23,3 C 3,2 C 74 % 77 % 84 % 1004,4 hPa 0,0 l/m 4,2 km/h (1 Bft) NW 315 0 min 0,0 UV-I 15,3 C 23,3 C 9,3 km/h (2 Bft)
29.06.2014 09:40 20,3 C 25,6 C 19,9 C 23,8 C 23,8 C 3,5 C 74 % 77 % 92 % 1004,6 hPa 0,0 l/m 4,2 km/h (1 Bft) S-SO 157 5 min 0,0 UV-I 15,5 C 23,8 C 6,6 km/h (2 Bft)
29.06.2014 09:45 20,4 C 25,6 C 19,9 C 23,5 C 23,5 C 3,1 C 74 % 77 % 82 % 1004,6 hPa 0,0 l/m 2,9 km/h (1 Bft) W-NW 292 0 min 0,0 UV-I 15,6 C 23,5 C 2,9 km/h (1 Bft)
29.06.2014 09:50 20,4 C 25,6 C 19,7 C 22,8 C 22,8 C 2,4 C 73 % 76 % 63 % 1004,6 hPa 0,0 l/m 2,9 km/h (1 Bft) NO 45 0 min 0,0 UV-I 15,4 C 22,8 C 4,0 km/h (1 Bft)
29.06.2014 09:55 20,3 C 25,6 C 19,6 C 22,2 C 22,2 C 1,9 C 73 % 76 % 50 % 1004,6 hPa 0,0 l/m 3,1 km/h (1 Bft) O-NO 67 0 min 0,0 UV-I 15,3 C 22,2 C 7,9 km/h (2 Bft)
29.06.2014 10:00 20,1 C 25,6 C 19,7 C 21,8 C 21,8 C 1,7 C 74 % 77 % 45 % 1005,0 hPa 0,0 l/m 3,2 km/h (1 Bft) O-SO 112 0 min 0,0 UV-I 15,3 C 21,8 C 1,9 km/h (1 Bft)
29.06.2014 10:05 20,1 C 25,6 C 19,7 C 21,9 C 21,9 C 1,8 C 74 % 76 % 47 % 1005,0 hPa 0,0 l/m 3,1 km/h (1 Bft) NW 315 0 min 0,0 UV-I 15,3 C 21,9 C 10,6 km/h (2 Bft)
29.06.2014 10:10 20,1 C 25,6 C 19,9 C 22,3 C 22,3 C 2,2 C 74 % 76 % 58 % 1005,0 hPa 0,0 l/m 2,4 km/h (1 Bft) SO 135 0 min 0,0 UV-I 15,3 C 22,3 C 0,0 km/h (0 Bft)
29.06.2014 10:15 20,2 C 25,6 C 20,1 C 22,7 C 22,7 C 2,5 C 74 % 77 % 66 % 1005,0 hPa 0,0 l/m 2,3 km/h (1 Bft) S 180 0 min 0,0 UV-I 15,4 C 22,7 C 2,9 km/h (1 Bft)
29.06.2014 10:20 20,4 C 25,6 C 20,1 C 23,1 C 23,1 C 2,7 C 74 % 76 % 71 % 1004,8 hPa 0,0 l/m 1,9 km/h (1 Bft) W 270 0 min 0,0 UV-I 15,6 C 23,1 C 0,0 km/h (0 Bft)
29.06.2014 10:25 20,4 C 25,6 C 20,3 C 23,1 C 23,1 C 2,7 C 74 % 76 % 71 % 1004,8 hPa 0,0 l/m 2,4 km/h (1 Bft) SO 135 0 min 0,0 UV-I 15,6 C 23,1 C 3,7 km/h (1 Bft)
29.06.2014 10:30 20,4 C 25,6 C 20,0 C 22,9 C 22,9 C 2,5 C 73 % 76 % 66 % 1004,8 hPa 0,0 l/m 2,1 km/h (1 Bft) SW 225 0 min 0,0 UV-I 15,4 C 22,9 C 5,8 km/h (2 Bft)
29.06.2014 10:35 20,4 C 25,6 C 20,1 C 22,7 C 22,7 C 2,3 C 73 % 76 % 61 % 1004,8 hPa 0,0 l/m 2,4 km/h (1 Bft) S 180 0 min 0,0 UV-I 15,4 C 22,7 C 3,9 km/h (1 Bft)
29.06.2014 10:40 20,5 C 25,6 C 19,9 C 22,4 C 22,4 C 1,9 C 73 % 76 % 50 % 1004,6 hPa 0,0 l/m 2,3 km/h (1 Bft) S 180 0 min 0,0 UV-I 15,5 C 22,4 C 1,9 km/h (1 Bft)
29.06.2014 10:45 20,4 C 25,6 C 19,8 C 22,1 C 22,1 C 1,7 C 73 % 76 % 45 % 1004,6 hPa 0,0 l/m 1,9 km/h (1 Bft) SW 225 0 min 0,0 UV-I 15,4 C 22,1 C 1,9 km/h (1 Bft)
29.06.2014 10:50 20,3 C 25,6 C 19,7 C 21,8 C 21,8 C 1,5 C 73 % 76 % 39 % 1004,6 hPa 0,0 l/m 1,9 km/h (1 Bft) S-SO 157 0 min 0,0 UV-I 15,3 C 21,8 C 2,1 km/h (1 Bft)
29.06.2014 10:55 20,3 C 25,6 C 19,7 C 21,6 C 21,6 C 1,3 C 73 % 76 % 34 % 1004,6 hPa 0,0 l/m 2,1 km/h (1 Bft) S-SW 202 0 min 0,0 UV-I 15,3 C 21,6 C 0,0 km/h (0 Bft)
29.06.2014 11:00 20,3 C 25,6 C 19,6 C 21,4 C 21,4 C 1,1 C 73 % 76 % 29 % 1005,2 hPa 0,0 l/m 1,4 km/h (1 Bft) S-SO 157 0 min 0,0 UV-I 15,3 C 21,4 C 0,0 km/h (0 Bft)
29.06.2014 11:05 20,2 C 25,7 C 19,5 C 21,2 C 21,2 C 1,0 C 74 % 76 % 26 % 1005,2 hPa 0,0 l/m 1,0 km/h (0 Bft) SW 225 0 min 0,0 UV-I 15,4 C 21,2 C 1,6 km/h (1 Bft)
29.06.2014 11:10 20,1 C 25,7 C 19,5 C 21,0 C 21,0 C 0,9 C 74 % 77 % 24 % 1005,2 hPa 0,0 l/m 1,0 km/h (0 Bft) NW 315 0 min 0,0 UV-I 15,3 C 21,0 C 2,7 km/h (1 Bft)
29.06.2014 11:15 20,1 C 25,7 C 19,4 C 21,0 C 21,0 C 0,9 C 74 % 77 % 24 % 1005,2 hPa 0,0 l/m 1,1 km/h (1 Bft) S-SO 157 0 min 0,0 UV-I 15,3 C 21,0 C 2,4 km/h (1 Bft)
29.06.2014 11:20 20,1 C 25,7 C 19,5 C 21,0 C 21,0 C 0,9 C 74 % 77 % 24 % 1005,2 hPa 0,0 l/m 1,4 km/h (1 Bft) SW 225 0 min 0,0 UV-I 15,3 C 21,0 C 3,4 km/h (1 Bft)
29.06.2014 11:25 20,1 C 25,7 C 19,3 C 21,0 C 21,0 C 0,9 C 74 % 77 % 24 % 1005,2 hPa 0,0 l/m 1,3 km/h (1 Bft) S-SO 157 0 min 0,0 UV-I 15,3 C 21,0 C 2,7 km/h (1 Bft)
29.06.2014 11:30 20,0 C 25,7 C 19,4 C 21,2 C 21,2 C 1,2 C 74 % 78 % 32 % 1005,2 hPa 0,0 l/m 1,3 km/h (1 Bft) SW 225 0 min 0,0 UV-I 15,2 C 21,2 C 3,9 km/h (1 Bft)
29.06.2014 11:35 20,0 C 25,7 C 19,3 C 21,1 C 21,1 C 1,1 C 74 % 78 % 29 % 1005,2 hPa 0,0 l/m 1,3 km/h (1 Bft) S-SO 157 0 min 0,0 UV-I 15,2 C 21,1 C 4,7 km/h (1 Bft)
29.06.2014 11:40 20,1 C 25,7 C 19,2 C 20,8 C 20,8 C 0,7 C 74 % 77 % 18 % 1005,6 hPa 0,0 l/m 1,8 km/h (1 Bft) SW 225 0 min 0,0 UV-I 15,3 C 20,8 C 0,0 km/h (0 Bft)
29.06.2014 11:45 20,1 C 25,7 C 19,3 C 20,8 C 20,8 C 0,7 C 74 % 78 % 18 % 1005,6 hPa 0,0 l/m 1,8 km/h (1 Bft) O-NO 67 0 min 0,0 UV-I 15,3 C 20,8 C 1,6 km/h (1 Bft)
29.06.2014 11:50 20,1 C 25,7 C 19,5 C 21,2 C 21,2 C 1,1 C 74 % 78 % 29 % 1005,6 hPa 0,0 l/m 1,1 km/h (1 Bft) NO 45 0 min 0,0 UV-I 15,3 C 21,2 C 0,0 km/h (0 Bft)
29.06.2014 11:55 20,2 C 25,7 C 19,6 C 21,5 C 21,5 C 1,3 C 74 % 77 % 34 % 1005,6 hPa 0,0 l/m 1,4 km/h (1 Bft) N-NO 22 0 min 0,0 UV-I 15,4 C 21,5 C 1,9 km/h (1 Bft)
29.06.2014 12:00 20,3 C 25,7 C 19,7 C 21,8 C 21,8 C 1,5 C 73 % 77 % 39 % 1005,2 hPa 0,0 l/m 4,0 km/h (1 Bft) SW 225 0 min 0,0 UV-I 15,3 C 21,8 C 4,5 km/h (1 Bft)
29.06.2014 12:05 20,3 C 25,7 C 19,9 C 21,9 C 21,9 C 1,6 C 74 % 77 % 42 % 1005,2 hPa 0,0 l/m 4,8 km/h (1 Bft) SW 225 0 min 0,0 UV-I 15,5 C 21,9 C 4,5 km/h (1 Bft)
29.06.2014 12:10 20,3 C 25,7 C 19,8 C 22,2 C 22,2 C 1,9 C 74 % 77 % 50 % 1005,2 hPa 0,0 l/m 4,7 km/h (1 Bft) S 180 0 min 0,0 UV-I 15,5 C 22,2 C 7,1 km/h (2 Bft)
29.06.2014 12:15 20,5 C 25,7 C 20,0 C 22,4 C 22,4 C 1,9 C 73 % 76 % 50 % 1005,2 hPa 0,0 l/m 4,7 km/h (1 Bft) S-SO 157 0 min 0,0 UV-I 15,5 C 22,4 C 7,2 km/h (2 Bft)
29.06.2014 12:20 20,7 C 25,7 C 20,3 C 22,7 C 22,7 C 2,0 C 73 % 77 % 53 % 1005,0 hPa 0,0 l/m 3,9 km/h (1 Bft) SW 225 0 min 0,0 UV-I 15,7 C 22,7 C 3,7 km/h (1 Bft)
29.06.2014 12:25 20,7 C 25,7 C 20,3 C 22,9 C 22,9 C 2,2 C 72 % 76 % 58 % 1005,0 hPa 0,0 l/m 3,4 km/h (1 Bft) S 180 0 min 0,0 UV-I 15,5 C 22,9 C 6,4 km/h (2 Bft)
29.06.2014 12:30 20,8 C 25,7 C 20,2 C 22,8 C 22,8 C 2,0 C 72 % 75 % 53 % 1005,0 hPa 0,0 l/m 3,5 km/h (1 Bft) SO 135 0 min 0,0 UV-I 15,6 C 22,8 C 2,3 km/h (1 Bft)
29.06.2014 12:35 20,8 C 25,7 C 20,1 C 22,6 C 22,6 C 1,8 C 71 % 76 % 47 % 1005,0 hPa 0,0 l/m 3,9 km/h (1 Bft) S 180 0 min 0,0 UV-I 15,3 C 22,6 C 4,8 km/h (1 Bft)
29.06.2014 12:41 20,4 C 25,7 C 19,6 C 21,2 C 21,2 C 0,8 C 72 % 76 % 21 % 1004,9 hPa 0,0 l/m 4,3 km/h (1 Bft) N 0 0 min 0,0 UV-I 15,2 C 21,2 C 6,9 km/h (2 Bft)
29.06.2014 13:01 19,9 C 25,7 C 19,9 C 21,9 C 21,9 C 2,0 C 76 % 78 % 53 % 1005,1 hPa 0,0 l/m 2,4 km/h (1 Bft) S-SO 157 0 min 0,0 UV-I 15,5 C 21,9 C 0,0 km/h (0 Bft)
29.06.2014 13:02 19,9 C 25,7 C 19,9 C 21,9 C 21,9 C 2,0 C 76 % 78 % 53 % 1005,1 hPa 0,0 l/m 2,4 km/h (1 Bft) S-SO 157 0 min 0,0 UV-I 15,5 C 21,9 C 0,0 km/h (0 Bft)
29.06.2014 13:05 19,9 C 25,7 C 19,9 C 21,9 C 21,9 C 2,0 C 76 % 78 % 53 % 1005,1 hPa 0,0 l/m 2,4 km/h (1 Bft) S-SO 157 0 min 0,0 UV-I 15,5 C 21,9 C 0,0 km/h (0 Bft)
29.06.2014 13:10 20,1 C 25,7 C 19,7 C 21,7 C 21,7 C 1,6 C 77 % 78 % 42 % 1005,1 hPa 0,0 l/m 1,6 km/h (1 Bft) SW 225 0 min 0,0 UV-I 15,9 C 21,7 C 2,3 km/h (1 Bft)
29.06.2014 13:15 20,0 C 25,7 C 19,6 C 21,5 C 21,5 C 1,5 C 76 % 79 % 39 % 1005,1 hPa 0,0 l/m 1,3 km/h (1 Bft) S 180 0 min 0,0 UV-I 15,6 C 21,5 C 0,0 km/h (0 Bft)
29.06.2014 13:20 20,1 C 25,7 C 19,6 C 21,3 C 21,3 C 1,2 C 77 % 79 % 32 % 1005,1 hPa 0,0 l/m 1,0 km/h (0 Bft) NW 315 0 min 0,0 UV-I 15,9 C 21,3 C 1,9 km/h (1 Bft)
29.06.2014 13:25 20,0 C 25,7 C 19,5 C 20,8 C 20,8 C 0,8 C 76 % 79 % 21 % 1005,1 hPa 0,0 l/m 2,1 km/h (1 Bft) W-SW 247 0 min 0,0 UV-I 15,6 C 20,8 C 3,9 km/h (1 Bft)
29.06.2014 13:30 19,6 C 25,7 C 19,3 C 19,9 C 19,9 C 0,3 C 76 % 79 % 8 % 1005,1 hPa 0,0 l/m 4,3 km/h (1 Bft) S 180 0 min 0,0 UV-I 15,2 C 19,9 C 20,0 km/h (4 Bft)
29.06.2014 13:35 19,3 C 25,7 C 19,2 C 19,9 C 19,9 C 0,6 C 78 % 80 % 16 % 1005,1 hPa 0,0 l/m 4,3 km/h (1 Bft) W-SW 247 0 min 0,0 UV-I 15,4 C 19,9 C 2,6 km/h (1 Bft)
29.06.2014 13:40 19,3 C 25,7 C 19,5 C 20,6 C 20,6 C 1,3 C 78 % 80 % 34 % 1005,0 hPa 0,0 l/m 3,2 km/h (1 Bft) W-SW 247 0 min 0,0 UV-I 15,4 C 20,6 C 6,3 km/h (2 Bft)
29.06.2014 13:45 19,2 C 25,7 C 19,5 C 20,9 C 20,9 C 1,7 C 79 % 80 % 45 % 1005,0 hPa 0,0 l/m 3,1 km/h (1 Bft) S 180 0 min 0,0 UV-I 15,5 C 20,9 C 7,6 km/h (2 Bft)
29.06.2014 13:50 19,2 C 25,8 C 19,4 C 20,9 C 20,9 C 1,7 C 80 % 80 % 45 % 1005,0 hPa 0,0 l/m 3,4 km/h (1 Bft) S-SW 202 0 min 0,0 UV-I 15,7 C 20,9 C 3,5 km/h (1 Bft)
29.06.2014 13:55 19,2 C 25,8 C 19,3 C 20,8 C 20,8 C 1,6 C 80 % 80 % 42 % 1005,0 hPa 0,0 l/m 2,9 km/h (1 Bft) S 180 0 min 0,0 UV-I 15,7 C 20,8 C 0,0 km/h (0 Bft)
29.06.2014 14:00 19,2 C 25,8 C 19,1 C 20,3 C 20,3 C 1,1 C 80 % 80 % 29 % 1004,9 hPa 0,0 l/m 1,3 km/h (1 Bft) NO 45 0 min 0,0 UV-I 15,7 C 20,3 C 1,6 km/h (1 Bft)
29.06.2014 14:05 19,1 C 25,8 C 19,1 C 19,8 C 19,8 C 0,7 C 80 % 81 % 18 % 1004,9 hPa 0,0 l/m 0,8 km/h (0 Bft) W-SW 247 0 min 0,0 UV-I 15,6 C 19,8 C 2,9 km/h (1 Bft)
29.06.2014 14:10 19,0 C 25,9 C 18,8 C 19,0 C 19,0 C 0,0 C 80 % 81 % 0 % 1004,9 hPa 0,0 l/m 0,6 km/h (0 Bft) SW 225 0 min 0,0 UV-I 15,5 C 19,0 C 1,6 km/h (1 Bft)
29.06.2014 14:15 19,0 C 25,9 C 18,8 C 18,8 C 18,5 C 0,0 C 80 % 82 % 0 % 1004,9 hPa 0,0 l/m 0,5 km/h (0 Bft) SO 135 0 min 0,0 UV-I 15,5 C 18,5 C 0,0 km/h (0 Bft)
29.06.2014 14:20 18,8 C 25,9 C 18,5 C 18,5 C 18,0 C 0,0 C 81 % 82 % 0 % 1004,8 hPa 0,0 l/m 0,2 km/h (0 Bft) W-SW 247 0 min 0,0 UV-I 15,5 C 18,0 C 0,0 km/h (0 Bft)
29.06.2014 14:25 18,7 C 26,0 C 18,4 C 18,4 C 17,7 C 0,0 C 81 % 83 % 0 % 1004,8 hPa 0,0 l/m 1,4 km/h (1 Bft) NO 45 0 min 0,0 UV-I 15,4 C 17,7 C 3,7 km/h (1 Bft)
29.06.2014 14:30 17,9 C 26,3 C 17,5 C 17,6 C 16,9 C 0,0 C 83 % 85 % 0 % 1004,8 hPa 5,5 l/m 5,3 km/h (1 Bft) SW 225 0 min 0,0 UV-I 15,0 C 16,9 C 7,6 km/h (2 Bft)
29.06.2014 14:35 17,3 C 26,3 C 16,7 C 17,0 C 16,4 C 0,0 C 83 % 86 % 0 % 1004,8 hPa 0,0 l/m 6,0 km/h (2 Bft) W-NW 292 0 min 0,0 UV-I 14,4 C 16,4 C 6,8 km/h (2 Bft)
29.06.2014 14:40 16,4 C 26,3 C 16,4 C 16,3 C 16,1 C 0,0 C 84 % 87 % 0 % 1005,2 hPa 4,1 l/m 4,7 km/h (1 Bft) W 270 0 min 0,0 UV-I 13,7 C 16,1 C 8,5 km/h (2 Bft)
29.06.2014 14:45 16,1 C 26,3 C 16,3 C 16,1 C 16,0 C 0,0 C 85 % 88 % 0 % 1005,2 hPa 0,0 l/m 3,5 km/h (1 Bft) W 270 0 min 0,0 UV-I 13,6 C 16,0 C 1,6 km/h (1 Bft)
29.06.2014 14:50 15,9 C 26,3 C 16,4 C 16,0 C 16,0 C 0,1 C 85 % 88 % 3 % 1005,2 hPa 0,0 l/m 2,6 km/h (1 Bft) S 180 0 min 0,0 UV-I 13,4 C 16,0 C 3,1 km/h (1 Bft)
29.06.2014 14:55 15,6 C 26,3 C 16,3 C 16,0 C 16,0 C 0,4 C 85 % 88 % 11 % 1005,2 hPa 0,7 l/m 2,6 km/h (1 Bft) S 180 0 min 0,0 UV-I 13,1 C 16,0 C 2,1 km/h (1 Bft)
29.06.2014 15:00 15,4 C 26,3 C 16,3 C 15,9 C 15,9 C 0,5 C 86 % 89 % 13 % 1005,9 hPa 0,0 l/m 3,1 km/h (1 Bft) S 180 0 min 0,0 UV-I 13,1 C 15,9 C 6,1 km/h (2 Bft)
29.06.2014 15:05 15,2 C 26,4 C 16,3 C 15,8 C 15,8 C 0,6 C 86 % 89 % 16 % 1005,9 hPa 0,0 l/m 2,4 km/h (1 Bft) SW 225 0 min 0,0 UV-I 12,9 C 15,8 C 5,0 km/h (1 Bft)
29.06.2014 15:10 15,1 C 26,4 C 16,3 C 15,7 C 15,7 C 0,6 C 86 % 90 % 16 % 1005,9 hPa 0,0 l/m 2,6 km/h (1 Bft) W-SW 247 0 min 0,0 UV-I 12,8 C 15,7 C 5,8 km/h (2 Bft)
29.06.2014 15:15 14,8 C 26,3 C 16,1 C 15,6 C 15,6 C 0,8 C 87 % 90 % 21 % 1005,9 hPa 0,0 l/m 2,9 km/h (1 Bft) S 180 0 min 0,0 UV-I 12,7 C 15,6 C 3,2 km/h (1 Bft)
29.06.2014 15:20 14,6 C 26,3 C 15,9 C 15,5 C 15,5 C 0,9 C 87 % 90 % 24 % 1006,1 hPa 0,0 l/m 3,7 km/h (1 Bft) W-SW 247 0 min 0,0 UV-I 12,5 C 15,5 C 5,8 km/h (2 Bft)
29.06.2014 15:25 14,5 C 26,3 C 15,9 C 15,4 C 15,4 C 0,9 C 87 % 90 % 24 % 1006,1 hPa 0,0 l/m 3,5 km/h (1 Bft) W 270 0 min 0,0 UV-I 12,4 C 15,4 C 3,5 km/h (1 Bft)
29.06.2014 15:30 14,5 C 26,3 C 15,7 C 15,4 C 15,4 C 0,9 C 87 % 90 % 24 % 1006,1 hPa 0,0 l/m 2,6 km/h (1 Bft) SW 225 0 min 0,0 UV-I 12,4 C 15,4 C 0,0 km/h (0 Bft)
29.06.2014 15:35 14,4 C 26,3 C 15,7 C 15,5 C 15,5 C 1,1 C 88 % 91 % 29 % 1006,1 hPa 0,0 l/m 1,4 km/h (1 Bft) S 180 0 min 0,0 UV-I 12,4 C 15,5 C 0,0 km/h (0 Bft)
29.06.2014 15:40 14,3 C 26,3 C 15,7 C 15,5 C 15,5 C 1,2 C 88 % 91 % 32 % 1006,2 hPa 0,7 l/m 0,8 km/h (0 Bft) SO 135 0 min 0,0 UV-I 12,3 C 15,5 C 1,9 km/h (1 Bft)
29.06.2014 15:45 14,2 C 26,3 C 15,6 C 15,5 C 15,5 C 1,3 C 88 % 91 % 34 % 1006,2 hPa 0,0 l/m 1,6 km/h (1 Bft) SW 225 0 min 0,0 UV-I 12,2 C 15,5 C 4,2 km/h (1 Bft)
29.06.2014 15:50 14,2 C 26,3 C 15,7 C 15,5 C 15,5 C 1,3 C 88 % 91 % 34 % 1006,2 hPa 0,0 l/m 1,9 km/h (1 Bft) W-SW 247 0 min 0,0 UV-I 12,2 C 15,5 C 2,4 km/h (1 Bft)
29.06.2014 15:55 14,3 C 26,3 C 15,9 C 15,5 C 15,5 C 1,2 C 88 % 91 % 32 % 1006,2 hPa 0,0 l/m 1,6 km/h (1 Bft) S-SW 202 0 min 0,0 UV-I 12,3 C 15,5 C 2,6 km/h (1 Bft)
29.06.2014 16:00 14,3 C 26,3 C 15,8 C 15,5 C 15,5 C 1,2 C 89 % 91 % 32 % 1006,5 hPa 0,0 l/m 1,3 km/h (1 Bft) W 270 0 min 0,0 UV-I 12,5 C 15,5 C 3,1 km/h (1 Bft)
29.06.2014 16:05 14,2 C 26,3 C 15,8 C 15,7 C 15,7 C 1,5 C 89 % 91 % 39 % 1006,5 hPa 0,0 l/m 1,8 km/h (1 Bft) S-SW 202 0 min 0,0 UV-I 12,4 C 15,7 C 6,6 km/h (2 Bft)
29.06.2014 16:10 14,1 C 26,3 C 15,9 C 15,6 C 15,6 C 1,5 C 89 % 91 % 39 % 1006,5 hPa 0,0 l/m 2,7 km/h (1 Bft) W-SW 247 0 min 0,0 UV-I 12,3 C 15,6 C 4,2 km/h (1 Bft)
29.06.2014 16:15 14,3 C 26,3 C 15,9 C 15,7 C 15,7 C 1,4 C 89 % 91 % 37 % 1006,5 hPa 0,0 l/m 3,2 km/h (1 Bft) W-SW 247 0 min 0,0 UV-I 12,5 C 15,7 C 4,5 km/h (1 Bft)
29.06.2014 16:20 14,1 C 26,3 C 15,9 C 15,6 C 15,6 C 1,5 C 89 % 91 % 39 % 1006,7 hPa 0,0 l/m 2,9 km/h (1 Bft) NW 315 0 min 0,0 UV-I 12,3 C 15,6 C 2,9 km/h (1 Bft)
29.06.2014 16:25 14,1 C 26,2 C 15,7 C 15,6 C 15,6 C 1,5 C 89 % 91 % 39 % 1006,7 hPa 0,0 l/m 3,1 km/h (1 Bft) W-NW 292 0 min 0,0 UV-I 12,3 C 15,6 C 8,2 km/h (2 Bft)
29.06.2014 16:30 14,0 C 26,2 C 15,6 C 15,4 C 15,4 C 1,4 C 89 % 91 % 37 % 1006,7 hPa 0,0 l/m 2,7 km/h (1 Bft) W 270 0 min 0,0 UV-I 12,2 C 15,4 C 4,8 km/h (1 Bft)
29.06.2014 16:35 13,9 C 26,2 C 15,5 C 15,3 C 15,3 C 1,4 C 89 % 91 % 37 % 1006,7 hPa 0,0 l/m 2,7 km/h (1 Bft) W-NW 292 0 min 0,0 UV-I 12,1 C 15,3 C 2,4 km/h (1 Bft)
29.06.2014 16:40 13,9 C 26,2 C 15,4 C 15,2 C 15,2 C 1,3 C 89 % 92 % 34 % 1006,9 hPa 0,0 l/m 1,9 km/h (1 Bft) S 180 0 min 0,0 UV-I 12,1 C 15,2 C 2,6 km/h (1 Bft)
29.06.2014 16:45 13,9 C 26,2 C 15,5 C 15,2 C 15,2 C 1,3 C 89 % 92 % 34 % 1006,9 hPa 0,0 l/m 2,1 km/h (1 Bft) W-SW 247 0 min 0,0 UV-I 12,1 C 15,2 C 3,7 km/h (1 Bft)
29.06.2014 16:50 13,9 C 26,2 C 15,5 C 15,1 C 15,1 C 1,2 C 89 % 92 % 32 % 1006,9 hPa 0,0 l/m 2,9 km/h (1 Bft) S 180 0 min 0,0 UV-I 12,1 C 15,1 C 2,1 km/h (1 Bft)
29.06.2014 16:55 13,9 C 26,2 C 15,4 C 15,2 C 15,2 C 1,3 C 89 % 92 % 34 % 1006,9 hPa 0,0 l/m 2,7 km/h (1 Bft) S-SO 157 0 min 0,0 UV-I 12,1 C 15,2 C 4,7 km/h (1 Bft)
29.06.2014 17:00 13,9 C 26,1 C 15,5 C 15,2 C 15,2 C 1,3 C 89 % 92 % 34 % 1007,1 hPa 0,0 l/m 2,4 km/h (1 Bft) S 180 0 min 0,0 UV-I 12,1 C 15,2 C 2,7 km/h (1 Bft)
29.06.2014 17:05 13,9 C 26,1 C 15,4 C 15,3 C 15,3 C 1,4 C 89 % 92 % 37 % 1007,1 hPa 0,0 l/m 2,9 km/h (1 Bft) W-SW 247 0 min 0,0 UV-I 12,1 C 15,3 C 4,5 km/h (1 Bft)
29.06.2014 17:10 13,9 C 26,1 C 15,3 C 15,3 C 15,3 C 1,4 C 89 % 92 % 37 % 1007,1 hPa 0,0 l/m 2,7 km/h (1 Bft) S-SO 157 0 min 0,0 UV-I 12,1 C 15,3 C 4,8 km/h (1 Bft)
29.06.2014 17:15 13,7 C 26,0 C 15,2 C 15,2 C 15,2 C 1,5 C 89 % 92 % 39 % 1007,1 hPa 0,0 l/m 2,9 km/h (1 Bft) S 180 0 min 0,0 UV-I 11,9 C 15,2 C 3,4 km/h (1 Bft)
29.06.2014 17:20 13,7 C 26,0 C 15,3 C 15,0 C 15,0 C 1,3 C 89 % 92 % 34 % 1007,4 hPa 0,0 l/m 1,9 km/h (1 Bft) SW 225 0 min 0,0 UV-I 11,9 C 15,0 C 2,7 km/h (1 Bft)
29.06.2014 17:25 13,7 C 26,0 C 15,2 C 15,2 C 15,2 C 1,5 C 89 % 92 % 39 % 1007,4 hPa 0,0 l/m 1,6 km/h (1 Bft) SO 135 0 min 0,0 UV-I 11,9 C 15,2 C 4,5 km/h (1 Bft)
29.06.2014 17:30 13,7 C 26,0 C 15,1 C 15,2 C 15,2 C 1,5 C 89 % 92 % 39 % 1007,4 hPa 0,0 l/m 1,8 km/h (1 Bft) SW 225 0 min 0,0 UV-I 11,9 C 15,2 C 0,0 km/h (0 Bft)
29.06.2014 17:35 13,7 C 26,0 C 15,2 C 15,2 C 15,2 C 1,5 C 89 % 92 % 39 % 1007,4 hPa 0,0 l/m 1,4 km/h (1 Bft) S 180 0 min 0,0 UV-I 11,9 C 15,2 C 0,0 km/h (0 Bft)
29.06.2014 17:40 13,7 C 26,0 C 15,2 C 15,2 C 15,2 C 1,5 C 89 % 92 % 39 % 1007,5 hPa 0,0 l/m 1,0 km/h (0 Bft) W-SW 247 0 min 0,0 UV-I 11,9 C 15,2 C 0,0 km/h (0 Bft)
29.06.2014 17:45 13,8 C 26,0 C 15,2 C 15,2 C 15,2 C 1,4 C 89 % 92 % 37 % 1007,5 hPa 0,0 l/m 0,8 km/h (0 Bft) S-SO 157 0 min 0,0 UV-I 12,0 C 15,2 C 0,0 km/h (0 Bft)
29.06.2014 17:50 13,9 C 26,0 C 15,3 C 15,3 C 15,3 C 1,4 C 89 % 92 % 37 % 1007,5 hPa 0,0 l/m 1,0 km/h (0 Bft) W-SW 247 0 min 0,0 UV-I 12,1 C 15,3 C 3,5 km/h (1 Bft)
29.06.2014 17:55 13,9 C 26,0 C 15,3 C 15,5 C 15,5 C 1,6 C 89 % 92 % 42 % 1007,5 hPa 0,0 l/m 1,0 km/h (0 Bft) NW 315 0 min 0,0 UV-I 12,1 C 15,5 C 2,4 km/h (1 Bft)
29.06.2014 18:00 13,9 C 26,0 C 15,5 C 15,9 C 15,9 C 2,0 C 89 % 92 % 53 % 1007,6 hPa 0,0 l/m 0,6 km/h (0 Bft) S-SW 202 0 min 0,0 UV-I 12,1 C 15,9 C 0,0 km/h (0 Bft)
29.06.2014 18:05 14,0 C 26,0 C 15,5 C 16,0 C 16,0 C 2,0 C 89 % 93 % 53 % 1007,6 hPa 0,0 l/m 0,5 km/h (0 Bft) W-NW 292 0 min 0,0 UV-I 12,2 C 16,0 C 0,0 km/h (0 Bft)
29.06.2014 18:10 14,0 C 25,9 C 15,5 C 16,1 C 16,1 C 2,1 C 89 % 93 % 55 % 1007,6 hPa 0,0 l/m 0,3 km/h (0 Bft) W 270 0 min 0,0 UV-I 12,2 C 16,1 C 1,9 km/h (1 Bft)
29.06.2014 18:15 14,0 C 25,9 C 15,5 C 16,0 C 16,0 C 2,0 C 89 % 93 % 53 % 1007,6 hPa 0,0 l/m 0,8 km/h (0 Bft) S-SW 202 0 min 0,0 UV-I 12,2 C 16,0 C 3,9 km/h (1 Bft)
29.06.2014 18:20 14,0 C 26,0 C 15,5 C 16,0 C 16,0 C 2,0 C 89 % 93 % 53 % 1007,7 hPa 0,0 l/m 1,0 km/h (0 Bft) S-SW 202 0 min 0,0 UV-I 12,2 C 16,0 C 1,6 km/h (1 Bft)
29.06.2014 18:25 14,0 C 25,9 C 15,4 C 16,1 C 16,1 C 2,1 C 89 % 93 % 55 % 1007,7 hPa 0,0 l/m 0,8 km/h (0 Bft) SW 225 0 min 0,0 UV-I 12,2 C 16,1 C 0,0 km/h (0 Bft)
29.06.2014 18:30 14,1 C 25,9 C 15,5 C 16,1 C 16,1 C 2,0 C 89 % 93 % 53 % 1007,7 hPa 0,0 l/m 0,5 km/h (0 Bft) NW 315 0 min 0,0 UV-I 12,3 C 16,1 C 2,1 km/h (1 Bft)
29.06.2014 18:35 14,1 C 25,9 C 15,5 C 16,0 C 16,0 C 1,9 C 89 % 93 % 50 % 1007,7 hPa 0,0 l/m 0,5 km/h (0 Bft) W-SW 247 0 min 0,0 UV-I 12,3 C 16,0 C 1,8 km/h (1 Bft)
29.06.2014 18:41 14,1 C 25,9 C 15,5 C 16,1 C 16,1 C 2,0 C 89 % 93 % 53 % 1007,5 hPa 0,0 l/m 0,8 km/h (0 Bft) N 0 0 min 0,0 UV-I 12,3 C 16,1 C 0,0 km/h (0 Bft)
29.06.2014 19:01 14,0 C 25,8 C 15,5 C 15,9 C 15,9 C 1,9 C 88 % 93 % 50 % 1007,6 hPa 0,0 l/m 1,1 km/h (1 Bft) NW 315 0 min 0,0 UV-I 12,0 C 15,9 C 2,3 km/h (1 Bft)
29.06.2014 19:02 14,0 C 25,8 C 15,5 C 15,9 C 15,9 C 1,9 C 88 % 93 % 50 % 1007,6 hPa 0,0 l/m 1,1 km/h (1 Bft) NW 315 0 min 0,0 UV-I 12,0 C 15,9 C 2,3 km/h (1 Bft)
29.06.2014 19:05 14,0 C 25,8 C 15,5 C 15,9 C 15,9 C 1,9 C 88 % 93 % 50 % 1007,6 hPa 0,0 l/m 1,1 km/h (1 Bft) NW 315 0 min 0,0 UV-I 12,0 C 15,9 C 2,3 km/h (1 Bft)
29.06.2014 19:10 14,0 C 25,8 C 15,3 C 15,8 C 15,8 C 1,8 C 88 % 93 % 47 % 1007,6 hPa 0,0 l/m 1,4 km/h (1 Bft) W-SW 247 0 min 0,0 UV-I 12,0 C 15,8 C 2,9 km/h (1 Bft)
29.06.2014 19:15 14,0 C 25,8 C 15,4 C 15,9 C 15,9 C 1,9 C 88 % 93 % 50 % 1007,6 hPa 0,0 l/m 1,1 km/h (1 Bft) W 270 0 min 0,0 UV-I 12,0 C 15,9 C 1,8 km/h (1 Bft)
29.06.2014 19:20 14,0 C 25,8 C 15,5 C 15,9 C 15,9 C 1,9 C 88 % 93 % 50 % 1007,8 hPa 0,0 l/m 0,5 km/h (0 Bft) W-SW 247 0 min 0,0 UV-I 12,0 C 15,9 C 1,8 km/h (1 Bft)
29.06.2014 19:25 14,1 C 25,8 C 15,5 C 16,1 C 16,1 C 2,0 C 89 % 93 % 53 % 1007,8 hPa 0,0 l/m 0,3 km/h (0 Bft) W-NW 292 0 min 0,0 UV-I 12,3 C 16,1 C 0,0 km/h (0 Bft)
29.06.2014 19:30 14,3 C 25,8 C 15,5 C 16,4 C 16,4 C 2,1 C 89 % 93 % 55 % 1007,8 hPa 0,0 l/m 0,0 km/h (0 Bft) O 90 0 min 0,0 UV-I 12,5 C 16,4 C 0,0 km/h (0 Bft)
29.06.2014 19:35 14,3 C 25,7 C 15,6 C 16,5 C 16,5 C 2,2 C 89 % 93 % 58 % 1007,8 hPa 0,0 l/m 0,2 km/h (0 Bft) O-SO 112 0 min 0,0 UV-I 12,5 C 16,5 C 0,0 km/h (0 Bft)
29.06.2014 19:40 14,4 C 25,7 C 15,4 C 16,4 C 16,4 C 2,0 C 89 % 93 % 53 % 1007,9 hPa 0,0 l/m 0,2 km/h (0 Bft) S 180 0 min 0,0 UV-I 12,6 C 16,4 C 0,0 km/h (0 Bft)
29.06.2014 19:45 14,3 C 25,7 C 15,5 C 16,4 C 16,4 C 2,1 C 88 % 93 % 55 % 1007,9 hPa 0,0 l/m 0,0 km/h (0 Bft) S 180 0 min 0,0 UV-I 12,3 C 16,4 C 0,0 km/h (0 Bft)
29.06.2014 19:50 14,2 C 25,8 C 15,4 C 16,1 C 16,1 C 1,9 C 88 % 93 % 50 % 1007,9 hPa 0,0 l/m 0,0 km/h (0 Bft) W-SW 247 0 min 0,0 UV-I 12,2 C 16,1 C 0,0 km/h (0 Bft)
29.06.2014 19:55 14,2 C 25,8 C 15,4 C 16,0 C 16,0 C 1,8 C 88 % 93 % 47 % 1007,9 hPa 0,0 l/m 0,0 km/h (0 Bft) O-SO 112 0 min 0,0 UV-I 12,2 C 16,0 C 0,0 km/h (0 Bft)
29.06.2014 20:00 14,3 C 25,7 C 15,5 C 15,8 C 15,8 C 1,5 C 88 % 93 % 39 % 1007,8 hPa 0,0 l/m 0,0 km/h (0 Bft) S 180 0 min 0,0 UV-I 12,3 C 15,8 C 0,0 km/h (0 Bft)
29.06.2014 20:05 14,2 C 25,7 C 15,3 C 15,7 C 15,7 C 1,5 C 88 % 93 % 39 % 1007,8 hPa 0,0 l/m 0,0 km/h (0 Bft) NO 45 0 min 0,0 UV-I 12,2 C 15,7 C 0,0 km/h (0 Bft)
29.06.2014 20:10 14,3 C 25,7 C 15,3 C 15,5 C 15,5 C 1,2 C 88 % 93 % 32 % 1007,8 hPa 0,0 l/m 0,0 km/h (0 Bft) N 360 0 min 0,0 UV-I 12,3 C 15,5 C 0,0 km/h (0 Bft)
29.06.2014 20:15 14,3 C 25,7 C 15,5 C 15,2 C 15,2 C 0,9 C 88 % 93 % 24 % 1007,8 hPa 0,0 l/m 0,0 km/h (0 Bft) SW 225 0 min 0,0 UV-I 12,3 C 15,2 C 0,0 km/h (0 Bft)
29.06.2014 20:20 14,2 C 25,7 C 15,3 C 15,0 C 15,0 C 0,8 C 88 % 93 % 21 % 1007,8 hPa 0,0 l/m 0,2 km/h (0 Bft) W-NW 292 0 min 0,0 UV-I 12,2 C 15,0 C 0,0 km/h (0 Bft)
29.06.2014 20:25 14,2 C 25,7 C 15,3 C 15,0 C 15,0 C 0,8 C 88 % 93 % 21 % 1007,8 hPa 0,0 l/m 0,2 km/h (0 Bft) S-SO 157 0 min 0,0 UV-I 12,2 C 15,0 C 0,0 km/h (0 Bft)
29.06.2014 20:30 14,2 C 25,8 C 15,2 C 15,0 C 15,0 C 0,8 C 88 % 93 % 21 % 1007,8 hPa 0,0 l/m 0,0 km/h (0 Bft) SO 135 0 min 0,0 UV-I 12,2 C 15,0 C 0,0 km/h (0 Bft)
29.06.2014 20:35 14,2 C 25,7 C 15,2 C 14,9 C 14,9 C 0,7 C 88 % 93 % 18 % 1007,8 hPa 0,0 l/m 0,0 km/h (0 Bft) SW 225 0 min 0,0 UV-I 12,2 C 14,9 C 0,0 km/h (0 Bft)
29.06.2014 20:40 14,1 C 25,8 C 15,3 C 14,9 C 14,9 C 0,8 C 88 % 93 % 21 % 1007,9 hPa 0,0 l/m 0,0 km/h (0 Bft) O-NO 67 0 min 0,0 UV-I 12,1 C 14,9 C 0,0 km/h (0 Bft)
29.06.2014 20:45 14,1 C 25,8 C 15,1 C 14,9 C 14,9 C 0,8 C 88 % 93 % 21 % 1007,9 hPa 0,0 l/m 0,0 km/h (0 Bft) SO 135 5 min 0,0 UV-I 12,1 C 14,9 C 0,0 km/h (0 Bft)
29.06.2014 20:50 14,1 C 25,7 C 15,1 C 14,9 C 14,9 C 0,8 C 88 % 93 % 21 % 1007,9 hPa 0,0 l/m 0,0 km/h (0 Bft) O-SO 112 5 min 0,0 UV-I 12,1 C 14,9 C 0,0 km/h (0 Bft)
29.06.2014 20:55 14,1 C 25,8 C 15,1 C 14,8 C 14,8 C 0,7 C 88 % 93 % 18 % 1007,9 hPa 0,0 l/m 0,0 km/h (0 Bft) O-NO 67 5 min 0,0 UV-I 12,1 C 14,8 C 0,0 km/h (0 Bft)
29.06.2014 21:00 14,0 C 25,8 C 15,1 C 14,7 C 14,7 C 0,7 C 88 % 93 % 18 % 1008,1 hPa 0,0 l/m 0,0 km/h (0 Bft) O-SO 112 5 min 0,0 UV-I 12,0 C 14,7 C 0,0 km/h (0 Bft)
29.06.2014 21:05 14,1 C 25,8 C 15,1 C 14,7 C 14,7 C 0,6 C 88 % 93 % 16 % 1008,1 hPa 0,0 l/m 0,0 km/h (0 Bft) SO 135 5 min 0,0 UV-I 12,1 C 14,7 C 0,0 km/h (0 Bft)
29.06.2014 21:10 14,0 C 25,8 C 15,0 C 14,5 C 14,5 C 0,5 C 88 % 93 % 13 % 1008,1 hPa 0,0 l/m 0,0 km/h (0 Bft) O 90 5 min 0,0 UV-I 12,0 C 14,5 C 0,0 km/h (0 Bft)
29.06.2014 21:15 14,0 C 25,7 C 15,1 C 14,4 C 14,4 C 0,4 C 88 % 93 % 0 % 1008,1 hPa 0,0 l/m 0,0 km/h (0 Bft) N-NO 22 0 min 0,0 UV-I 12,0 C 14,4 C 0,0 km/h (0 Bft)
29.06.2014 21:20 13,9 C 25,7 C 15,0 C 14,2 C 14,2 C 0,3 C 88 % 93 % 0 % 1008,1 hPa 0,0 l/m 0,0 km/h (0 Bft) SW 225 0 min 0,0 UV-I 11,9 C 14,2 C 0,0 km/h (0 Bft)
29.06.2014 21:25 13,9 C 25,7 C 14,9 C 14,2 C 14,2 C 0,3 C 88 % 93 % 0 % 1008,1 hPa 0,0 l/m 0,0 km/h (0 Bft) O-SO 112 0 min 0,0 UV-I 11,9 C 14,2 C 0,0 km/h (0 Bft)
29.06.2014 21:30 13,7 C 25,7 C 14,8 C 14,0 C 14,0 C 0,3 C 88 % 93 % 0 % 1008,1 hPa 0,0 l/m 0,0 km/h (0 Bft) S-SO 157 0 min 0,0 UV-I 11,7 C 14,0 C 0,0 km/h (0 Bft)
29.06.2014 21:35 13,7 C 25,8 C 14,8 C 13,9 C 13,9 C 0,2 C 88 % 93 % 0 % 1008,1 hPa 0,0 l/m 0,0 km/h (0 Bft) O 90 0 min 0,0 UV-I 11,7 C 13,9 C 0,0 km/h (0 Bft)
29.06.2014 21:40 13,7 C 25,8 C 14,7 C 13,7 C 13,7 C 0,0 C 88 % 93 % 0 % 1008,4 hPa 0,0 l/m 0,0 km/h (0 Bft) O-SO 112 0 min 0,0 UV-I 11,7 C 13,7 C 0,0 km/h (0 Bft)
29.06.2014 21:45 13,5 C 25,8 C 14,6 C 13,7 C 13,7 C 0,2 C 88 % 93 % 0 % 1008,4 hPa 0,0 l/m 0,0 km/h (0 Bft) NO 45 0 min 0,0 UV-I 11,6 C 13,7 C 0,0 km/h (0 Bft)
29.06.2014 21:50 13,5 C 25,8 C 14,7 C 13,6 C 13,6 C 0,1 C 89 % 93 % 0 % 1008,4 hPa 0,0 l/m 0,0 km/h (0 Bft) W 270 0 min 0,0 UV-I 11,7 C 13,6 C 0,0 km/h (0 Bft)
29.06.2014 21:55 13,5 C 25,8 C 14,6 C 13,7 C 13,7 C 0,2 C 89 % 93 % 0 % 1008,4 hPa 0,0 l/m 0,0 km/h (0 Bft) W-SW 247 0 min 0,0 UV-I 11,7 C 13,7 C 0,0 km/h (0 Bft)
29.06.2014 22:00 13,5 C 25,8 C 14,7 C 13,8 C 13,8 C 0,3 C 89 % 93 % 0 % 1008,6 hPa 0,0 l/m 0,0 km/h (0 Bft) N-NW 337 0 min 0,0 UV-I 11,7 C 13,8 C 0,0 km/h (0 Bft)
29.06.2014 22:05 13,5 C 25,8 C 14,7 C 13,8 C 13,8 C 0,3 C 89 % 93 % 0 % 1008,6 hPa 0,0 l/m 0,0 km/h (0 Bft) W-NW 292 0 min 0,0 UV-I 11,7 C 13,8 C 0,0 km/h (0 Bft)
29.06.2014 22:10 13,5 C 25,8 C 14,6 C 13,9 C 13,9 C 0,4 C 89 % 93 % 0 % 1008,6 hPa 0,0 l/m 0,0 km/h (0 Bft) S-SW 202 0 min 0,0 UV-I 11,7 C 13,9 C 0,0 km/h (0 Bft)
29.06.2014 22:15 13,4 C 25,8 C 14,7 C 13,9 C 13,9 C 0,5 C 89 % 93 % 0 % 1008,6 hPa 0,0 l/m 0,0 km/h (0 Bft) W 270 0 min 0,0 UV-I 11,6 C 13,9 C 0,0 km/h (0 Bft)
29.06.2014 22:20 13,4 C 25,7 C 14,7 C 13,9 C 13,9 C 0,5 C 89 % 93 % 0 % 1008,6 hPa 0,0 l/m 0,0 km/h (0 Bft) W-SW 247 0 min 0,0 UV-I 11,6 C 13,9 C 0,0 km/h (0 Bft)
29.06.2014 22:25 13,3 C 25,7 C 14,7 C 13,9 C 13,9 C 0,6 C 89 % 93 % 0 % 1008,6 hPa 0,0 l/m 0,0 km/h (0 Bft) S 180 0 min 0,0 UV-I 11,5 C 13,9 C 0,0 km/h (0 Bft)
29.06.2014 22:30 13,3 C 25,7 C 14,7 C 13,9 C 13,9 C 0,6 C 89 % 93 % 0 % 1008,6 hPa 0,0 l/m 0,2 km/h (0 Bft) SW 225 0 min 0,0 UV-I 11,5 C 13,9 C 0,0 km/h (0 Bft)
29.06.2014 22:35 13,3 C 25,7 C 14,7 C 13,9 C 13,9 C 0,6 C 89 % 93 % 0 % 1008,6 hPa 0,0 l/m 0,2 km/h (0 Bft) O-SO 112 0 min 0,0 UV-I 11,5 C 13,9 C 0,0 km/h (0 Bft)
29.06.2014 22:40 13,3 C 25,7 C 14,6 C 13,9 C 13,9 C 0,6 C 89 % 93 % 0 % 1008,8 hPa 0,0 l/m 0,0 km/h (0 Bft) W-SW 247 0 min 0,0 UV-I 11,5 C 13,9 C 0,0 km/h (0 Bft)
29.06.2014 22:45 13,3 C 25,7 C 14,6 C 13,8 C 13,8 C 0,5 C 89 % 93 % 0 % 1008,8 hPa 0,0 l/m 0,0 km/h (0 Bft) S-SO 157 0 min 0,0 UV-I 11,5 C 13,8 C 0,0 km/h (0 Bft)
29.06.2014 22:50 13,2 C 25,7 C 14,6 C 13,8 C 13,8 C 0,6 C 89 % 93 % 0 % 1008,8 hPa 0,0 l/m 0,0 km/h (0 Bft) NW 315 0 min 0,0 UV-I 11,4 C 13,8 C 0,0 km/h (0 Bft)
29.06.2014 22:55 13,2 C 25,7 C 14,5 C 13,7 C 13,7 C 0,5 C 89 % 93 % 0 % 1008,8 hPa 0,0 l/m 0,0 km/h (0 Bft) NW 315 0 min 0,0 UV-I 11,4 C 13,7 C 0,0 km/h (0 Bft)
29.06.2014 23:00 13,3 C 25,7 C 14,5 C 13,6 C 13,6 C 0,3 C 89 % 93 % 0 % 1008,8 hPa 0,0 l/m 0,0 km/h (0 Bft) S 180 0 min 0,0 UV-I 11,5 C 13,6 C 0,0 km/h (0 Bft)
29.06.2014 23:05 13,3 C 25,7 C 14,5 C 13,6 C 13,6 C 0,3 C 89 % 93 % 0 % 1008,8 hPa 0,0 l/m 0,0 km/h (0 Bft) W 270 0 min 0,0 UV-I 11,5 C 13,6 C 1,8 km/h (1 Bft)
29.06.2014 23:10 13,2 C 25,7 C 14,5 C 13,5 C 13,5 C 0,3 C 89 % 93 % 0 % 1008,8 hPa 0,0 l/m 0,0 km/h (0 Bft) S-SW 202 0 min 0,0 UV-I 11,4 C 13,5 C 0,0 km/h (0 Bft)
29.06.2014 23:15 13,2 C 25,6 C 14,4 C 13,4 C 13,4 C 0,2 C 89 % 93 % 0 % 1008,8 hPa 0,0 l/m 0,2 km/h (0 Bft) SO 135 0 min 0,0 UV-I 11,4 C 13,4 C 0,0 km/h (0 Bft)
29.06.2014 23:20 13,1 C 25,6 C 14,4 C 13,3 C 13,3 C 0,2 C 89 % 93 % 0 % 1008,9 hPa 0,0 l/m 0,2 km/h (0 Bft) S 180 0 min 0,0 UV-I 11,3 C 13,3 C 0,0 km/h (0 Bft)
29.06.2014 23:25 13,1 C 25,6 C 14,3 C 13,3 C 13,3 C 0,2 C 89 % 93 % 0 % 1008,9 hPa 0,0 l/m 0,0 km/h (0 Bft) S 180 0 min 0,0 UV-I 11,3 C 13,3 C 0,0 km/h (0 Bft)
29.06.2014 23:30 13,1 C 25,7 C 14,3 C 13,1 C 13,1 C 0,0 C 89 % 93 % 0 % 1008,9 hPa 0,0 l/m 0,0 km/h (0 Bft) SO 135 0 min 0,0 UV-I 11,3 C 13,1 C 0,0 km/h (0 Bft)
29.06.2014 23:35 12,9 C 25,7 C 14,2 C 13,1 C 13,1 C 0,2 C 89 % 93 % 0 % 1008,9 hPa 0,0 l/m 0,0 km/h (0 Bft) O-SO 112 0 min 0,0 UV-I 11,1 C 13,1 C 0,0 km/h (0 Bft)
29.06.2014 23:40 12,8 C 25,6 C 14,2 C 13,1 C 13,1 C 0,3 C 89 % 93 % 0 % 1009,1 hPa 0,0 l/m 0,0 km/h (0 Bft) W-SW 247 0 min 0,0 UV-I 11,0 C 13,1 C 0,0 km/h (0 Bft)
29.06.2014 23:45 12,8 C 25,6 C 14,2 C 13,3 C 13,3 C 0,5 C 89 % 93 % 0 % 1009,1 hPa 0,0 l/m 0,5 km/h (0 Bft) W-SW 247 0 min 0,0 UV-I 11,0 C 13,3 C 2,1 km/h (1 Bft)
29.06.2014 23:50 12,8 C 25,6 C 14,3 C 13,3 C 13,3 C 0,5 C 89 % 93 % 0 % 1009,1 hPa 0,0 l/m 0,6 km/h (0 Bft) S 180 0 min 0,0 UV-I 11,0 C 13,3 C 1,6 km/h (1 Bft)
29.06.2014 23:55 12,8 C 25,5 C 14,3 C 13,4 C 13,4 C 0,6 C 89 % 93 % 0 % 1009,1 hPa 0,0 l/m 0,3 km/h (0 Bft) SO 135 0 min 0,0 UV-I 11,0 C 13,4 C 0,0 km/h (0 Bft)
_ Min-Zeit 23:40 23:55 23:35 23:30 23:30 01:10 12:35 12:30 00:00 07:20 - 00:00 - - - 00:00 23:40 23:30 00:00
Minimum _ 12,8 C 25,5 C 14,2 C 13,1 C 13,1 C 0,0 C 71 % 75 % 0 % 1004,0 hPa - 0,0 km/h (0 Bft) - - - 0,0 UV-I 11,0 C 13,1 C 0,0 km/h (0 Bft)
_ Max-Zeit 12:30 15:05 10:25 09:00 09:00 09:00 16:00 18:05 08:40 23:40 14:30 14:35 - - 08:40 00:00 13:10 09:00 13:30
Maximum _ 20,8 C 26,4 C 20,3 C 24,3 C 24,3 C 4,7 C 89 % 93 % 100 % 1009,1 hPa 5,5 l/m 6,0 km/h
W-NW (2 Bft)
- - 5 min 0,0 UV-I 15,9 C 24,3 C 20,0 km/h
S (4 Bft)
Durchschnitt _ 16,3 C 25,8 C 16,8 C 17,3 C 17,3 C 1,0 C 84 % 86 % 25 % 1006,2 hPa #11,0 l/m 1,2 km/h (1 Bft) S - #1:25 h 0,0 UV-I 13,5 C 17,3 C 1,9 km/h (1 Bft)
2014 www.wetterstation-wechselburg.de